User: anonymous   Login
Location: Camp Creek
(33.9000°N, 111.8167°W)
Time: 21:16:33
(UTC-07:00)
Language:

DELTA 2 R/B (1) - Orbit

View from above orbital plane
View from above orbital plane
View from above satellite
View from above satellite

Ground track
Ground track

The orbit data is extracted from the following two-line orbital elements,

1 27665U 03005C   15141.69434142  .00000102  00000-0  74256-4 0  9990
2 27665 039.5770 006.9986 0007769 016.9150 081.5163 14.28337494642593
Epoch (UTC): 21 May 2015 16:39:51
Eccentricity: 0.0007769
inclination: 39.5770°
perigee height: 792 km
apogee height: 803 km
right ascension of ascending node: 6.9986°
argument of perigee: 16.9150°
revolutions per day: 14.28337494
mean anomaly at epoch: 81.5163°
orbit number at epoch: 64259

The dashed part of the orbit path shows where the satellite is in the earth's shadow,  

DLR